Regional Weather Roundup
Issued by NWS Midland/Odessa, TX

Skip options and go directly to product.
Home | Oldest Version | Previous Version | Current Version | All | Text Only | Save Text | Print | Product List | Glossary On

Skip product version selection by date and time.   
470
ASUS44 KMAF 311310
RWRMAF
MIDLAND AREA WEATHER ROUNDUP
NATIONAL WEATHER SERVICE MIDLAND TX
800 AM CDT MON AUG 31 2015

...IN SOUTHWEST TEXAS AND SOUTHEAST NEW MEXICO...

CITY           SKY/WX    TMP DP  RH WIND       PRES   REMARKS
ALPINE         CLEAR     61  50  67 S5        30.18R
ANDREWS        FAIR      64  57  80 S3        30.08R
ARTESIA        CLEAR     63  52  67 S7        30.07R
BIG SPRING     CLEAR     63  55  75 SE7       30.08R
CARLSBAD       CLEAR     64  49  57 S7        30.04R
DRYDEN           N/A     70  60  70 NW8       30.02R
FORT STOCKTON  CLEAR     65  56  72 S8        30.05R
GUAD PASS      CLEAR     68  47  46 SW5       30.19R
HOBBS          CLEAR     61  61 100 SE8       30.09R
MARFA          CLEAR     54  48  82 N8        30.16S
MIDLAND AIRPK  CLEAR     68  58  70 SE5       30.07R
MIDLAND INTL   CLEAR     66  58  75 SE7       30.06R
ODESSA         CLEAR     68  57  68 S6        30.07R
PECOS          CLEAR     62  55  77 NE6       30.03R
PRESIDIO       NOT AVBL
SEMINOLE       CLEAR     59  54  85 S5        30.09R
SNYDER         CLEAR     63  57  82 S6        30.07R
WINK           CLEAR     66  58  75 E8        30.03R
$$
...OTHER STATIONS IN TEXAS...

CITY           SKY/WX    TMP DP  RH WIND       PRES   REMARKS
ABILENE        CLEAR     70  60  70 S6        30.04R
AMARILLO       CLEAR     66  55  67 SW14      30.06R
AUSTIN         MOSUNNY   71  69  93 CALM      30.01R
BROWNSVILLE    TSTM      75  72  90 S14       29.97R
CORPUS CHRISTI PTSUNNY   77  71  82 CALM      29.96R
DALLAS FTW     SUNNY     76  66  71 S6        30.01R
DEL RIO        CLEAR     75  68  78 E8        29.97R
EL PASO        PTCLDY    69  51  52 E5        30.06R
HOUSTON INT    PTSUNNY   73  70  90 CALM      30.02R
LUBBOCK        CLEAR     64  57  78 S7        30.08R
SAN ANGELO     CLEAR     66  61  84 CALM      30.04R
SAN ANTONIO    MOCLDY    77  72  84 SE3       30.02R
WACO           SUNNY     73  68  84 SE8       30.02R
WICHITA FALLS  NOT AVBL
$$
...OTHER LOCATIONS IN NEW MEXICO...

CITY           SKY/WX    TMP DP  RH WIND       PRES   REMARKS
ALAMAGORDO     CLEAR     63  48  59 CALM      30.10R
ALBUQUERQUE    PTCLDY    68  50  52 W3        30.18R
CANNON AFB     CLEAR     61  54  75 SW6       30.10R
CLOVIS         CLEAR     57  52  82 SW7       30.11R
HOLLOMAN AFB   CLEAR     64  51  63 W2        30.08R
ROSWELL        CLEAR     61  52  72 S5        30.05R
RUIDOSO        CLEAR     59  45  58 MISG      30.27R
SANTA FE       PTCLDY    57  46  66 VRB5      30.22R
TRUTH OR CONSE CLEAR     67  51  56 NW5       30.12R
TUCUMCARI      CLEAR     67  51  56 SW10      30.03R
$$

USA.gov is the U.S. government's official web portal to all federal, state and local government web resources and services.